sat.trackr.live / text

‹ back to catalog

STARLINK-4026

NORAD 52600 · 2022-052C

PAYLOAD ACTIVE UNKNOWN

§ Identity

Operator
Country
US
Launch date
2022-05-14
Launch site
AFETR
Launch vehicle
Mass (kg)
RCS (m²)

Purposes: comms

External: N2YO · Heavens-Above · Gunter

§ Orbital elements

Epoch: 2026-05-24T20:03:13.759488Z

Period
95.44 min
Inclination
53.2158°
Eccentricity
0.0001422
Mean motion
15.08837506 rev/d
Perigee alt
538.8 km
Apogee alt
540.7 km
Semi-major
6,917.9 km
B*
5.8048e-5
RAAN
297.2856°
Arg perigee
92.0586°
Mean anomaly
268.0569°
Rev number
22,315

§ Raw data

STARLINK-40261 52600U 22052C   26144.83557592  .00000636  00000+0  58048-4 0  99982 52600  53.2158 297.2856 0001422  92.0586 268.0569 15.08837506223159

JSON: /api/v1/satellites/52600 · /tle

For live sub-satellite position, see the globe view (requires WebGL).

§ Visibility from observer

Set your observer location to see the next 7 days of passes ≥ 10°. The values pass through the URL so the page stays shareable.

No JS? Fill the form by hand. The geolocation button needs JavaScript.